Current conditions around Wisconsin

 

						ASUS43 KMKX 240700
RWRWI

WISCONSIN REGIONAL WEATHER ROUNDUP
NATIONAL WEATHER SERVICE MILWAUKEE/SULLIVAN WI
200 AM CDT THU MAY 24 2018

NOTE: "FAIR" INDICATES FEW OR NO CLOUDS BELOW 12,000 FEET WITH NO
SIGNIFICANT WEATHER AND/OR OBSTRUCTIONS TO VISIBILITY.

WIZ001-002-006>008-014>016-023>028-240800-
NORTHWEST WISCONSIN

CITY           SKY/WX    TMP DP  RH WIND       PRES   REMARKS
SUPERIOR ARPT  FAIR      49  44  83 NE5       30.09R
ASHLAND        MOCLDY    56  54  93 CALM      30.08F
HAYWARD        FAIR      65  61  87 CALM      30.09F
SIREN          FAIR      69  60  72 SE6       30.07F
CUMBERLAND     MOCLDY    66  59  77 SE5       30.10S
RICE LAKE      FAIR      65  61  85 CALM      30.11F
CHETEK         FAIR      65  62  90 CALM      30.10S
LADYSMITH      FAIR      64  59  84 SE3       30.14R
EAU CLAIRE     NOT AVBL
MENOMONIE      FAIR      64  61  90 SE3       30.09S
NEW RICHMOND   FAIR      69  60  73 S7        30.07S
OSCEOLA        MOCLDY    71  62  73 SE8       30.09S
$$

WIZ003>005-009-010-017-018-240800-
NORTH CENTRAL WISCONSIN

CITY           SKY/WX    TMP DP  RH WIND       PRES   REMARKS
MANITOWISH WTR FAIR      55  55 100 CALM      30.13F
ARBOR VITAE    FAIR      60  57  92 CALM      30.14F
WOODRUFF       FAIR      60  57  92 CALM      30.14F
RHINELANDER    FAIR      60  58  92 CALM      30.16F FOG
EAGLE RIVER    FAIR      57  56  95 CALM      30.15S
LAND O LAKES   FAIR      54  53  97 CALM      30.17S
PHILLIPS       FAIR      59  59 100 CALM      30.13F
TOMAHAWK       FAIR      56  55  95 CALM      30.15F
MEDFORD        FAIR      61  58  91 CALM      30.14S
MERRILL        FAIR      56  56 100 CALM      30.15S
$$

WIZ029-030-035-036-043>047-240800-
CENTRAL WISCONSIN

CITY           SKY/WX    TMP DP  RH WIND       PRES   REMARKS
WAUSAU         FAIR      62  60  93 E3        30.13F
MOSINEE        FAIR      61  59  94 SE3       30.16S
MARSHFIELD     FAIR      62  60  93 CALM      30.13F
STEVENS POINT  FAIR      58  58  99 CALM      30.15F
WAUPACA        FAIR      62  60  92 CALM      30.15F
WAUTOMA        FAIR      59  58  96 CALM      30.15F
WISC RAPIDS    FAIR      63  60  90 CALM      30.14F
CAMP DOUGLAS   FAIR      60  60 100 SE5       30.13S
$$

WIZ011>013-019>022-031-037>040-048>050-240800-
NORTHEAST WISCONSIN

CITY           SKY/WX    TMP DP  RH WIND       PRES   REMARKS
ANTIGO         FAIR      58  57  97 CALM      30.17S
SHAWANO        FAIR      64  58  82 CALM      30.15S
OCONTO         FAIR      58  55  89 CALM      30.14S
STURGEON BAY   FAIR      63  47  55 S6        30.15F
GREEN BAY      FAIR      60  52  74 CALM      30.15F
MANITOWOC      FAIR      58  49  72 E3        30.16F
APPLETON       FAIR      61  52  72 CALM      30.15S
CLINTONVILLE   FAIR      61  56  84 CALM      30.14F
OSHKOSH        FAIR      63  56  78 S8        30.15F
$$

WIZ032>034-041-042-053>061-240800-
SOUTHWEST WISCONSIN

CITY           SKY/WX    TMP DP  RH WIND       PRES   REMARKS
LA CROSSE      FAIR      66  62  87 SE6       30.10F
SPARTA         FAIR      56  56  97 CALM      30.13F
VIROQUA        FAIR      67  62  83 SE9       30.14F
BOSCOBEL       FAIR      61  59  93 CALM      30.14S FOG
PRAIRIE DU CHI FAIR      65  61  88 CALM      30.12S
PLATTEVILLE    FAIR      67  60  79 SE7       30.15F
$$

WIZ056-057-062-063-064-067-068-240800-
SOUTH CENTRAL WISCONSIN

CITY           SKY/WX    TMP DP  RH WIND       PRES   REMARKS
REEDSBURG      FAIR      61  61 100 CALM      30.14F
BARABOO/DELLS  FAIR      61  58  90 S5        30.14F
LONE ROCK      NOT AVBL
MINERAL POINT  FAIR      66  61  82 SE5       30.15F
MADISON        FAIR      63  57  81 CALM      30.14F
MIDDLETON      FAIR      60  60 100 CALM      30.16F
WATERTOWN      FAIR      60  56  88 CALM      30.16F
MONROE         FAIR      64  54  68 SE7       30.16S
JANESVILLE     FAIR      61  52  72 CALM      30.16F
$$

WIZ051-052-058>065-066-070>072-240800-
SOUTHEAST WISCONSIN

CITY           SKY/WX    TMP DP  RH WIND       PRES   REMARKS
MILWAUKEE      FAIR      59  49  69 CALM      30.17F
WAUKESHA       FAIR      55  46  71 CALM      30.18F
MILWAUKEE/TIMM FAIR      55  46  71 CALM      30.18F
RACINE         FAIR      55  52  89 S3        30.18F
BURLINGTON     FAIR      55  53  94 CALM      30.17F
KENOSHA        FAIR      56  52  86 S3        30.17F
FOND DU LAC    FAIR      61  54  77 S3        30.16S
SHEBOYGAN      FAIR      56  50  80 SW3       30.16F
WEST BEND      FAIR      55  50  82 CALM      30.17F
JUNEAU         FAIR      61  55  80 CALM      30.17F
$$

LSZ147-162-240800-
LAKE SUPERIOR

STATION/POSITION TIME  TEMP    WIND        PRES    WAVE
                       AIR SEA DIR/SP/G            HT/PER
                 (UTC) (F)     (DEG/KT/KT) (MB)    (FT/S)
W MID LAKE BUOY  0550   39 36  350/  6/  8 1019.8R   0
DEVILS ISLAND    0600   44      70/  6/  7 1019.6F
SAXON HARBOR     0640   58     130/  2/  4 1017.9F
$$

LMZ867-665-643>646-240800-
LAKE MICHIGAN

STATION/POSITION TIME  TEMP    WIND        PRES    WAVE
                       AIR SEA DIR/SP/G            HT/PER
                 (UTC) (F)     (DEG/KT/KT) (MB)    (FT/S)
N MID LAKE BUOY  0640   41 37  180/  8/  8 1020.9F
NORTHPORT PIER   0640   49      CALM  /  2 1020.7S
KEWAUNEE LAKESHO 0630   65      10/  2/  3 1020.5F
SHEBOYGAN LAKESH 0600   61     190/  4/  5 1021.5F
PORT WASHINGTON  0630   54      CALM  /  1 1022.4F
ATWATER BUOY     0607   53 49  140/  4/  6 1021.6    1
MILWAUKEE LAKESH 0630   60     180/  4/  4   N/A
S MID LAKE BUOY  0550   49 39  130/  6/  6 1022.9S   0
KENOSHA   LAKESH 0600   57                 1022.0
$$

TC  - TEMPERATURE IN CELSIUS
VSB - VISIBILITY IN STATUTE MILES
WCI - WIND CHILL INDEX
HX  - HEAT INDEX




ASUS43 KMKX 240711
RWRWI

WISCONSIN REGIONAL WEATHER ROUNDUP
NATIONAL WEATHER SERVICE MILWAUKEE/SULLIVAN WI
200 AM CDT THU MAY 24 2018

NOTE: "FAIR" INDICATES FEW OR NO CLOUDS BELOW 12,000 FEET WITH NO
SIGNIFICANT WEATHER AND/OR OBSTRUCTIONS TO VISIBILITY.

WIZ001-002-006>008-014>016-023>028-240800-
NORTHWEST WISCONSIN

CITY           SKY/WX    TMP DP  RH WIND       PRES   REMARKS
SUPERIOR ARPT  FAIR      49  44  81 NE3       30.09R
ASHLAND        MOCLDY    56  54  93 CALM      30.08F
HAYWARD        FAIR      65  61  87 CALM      30.09F
SIREN          FAIR      69  60  74 SE6       30.07F
CUMBERLAND     FAIR      66  59  77 E6        30.10S
RICE LAKE      FAIR      66  61  85 SE3       30.11F
CHETEK         FAIR      64  62  93 E5        30.10S
LADYSMITH      FAIR      64  59  85 SE3       30.13S
EAU CLAIRE     FAIR      66  61  84 CALM      30.08F
MENOMONIE      FAIR      66  62  87 E3        30.08F
NEW RICHMOND   FAIR      69  60  74 S8        30.07S
OSCEOLA        CLOUDY    71  62  74 SE8       30.09S
$$

WIZ003>005-009-010-017-018-240800-
NORTH CENTRAL WISCONSIN

CITY           SKY/WX    TMP DP  RH WIND       PRES   REMARKS
MANITOWISH WTR   N/A     55  55 100 CALM      30.13F FOG
ARBOR VITAE    FAIR      59  57  91 SE3       30.14F
WOODRUFF       FAIR      59  57  91 SE3       30.14F
RHINELANDER    FAIR      60  58  92 CALM      30.16F FOG
EAGLE RIVER    FAIR      56  55  99 CALM      30.15S
LAND O LAKES   FAIR      54  53  96 CALM      30.17F
PHILLIPS       FAIR      61  61  99 S5        30.12F
TOMAHAWK       FAIR      56  55  96 CALM      30.16S FOG
MEDFORD        FAIR      60  58  93 S3        30.13F
MERRILL        FAIR      57  57 100 CALM      30.15S
$$

WIZ029-030-035-036-043>047-240800-
CENTRAL WISCONSIN

CITY           SKY/WX    TMP DP  RH WIND       PRES   REMARKS
WAUSAU         FAIR      62  60  93 E3        30.13F
MOSINEE        FAIR      61  59  94 S3        30.16S
MARSHFIELD     FAIR      62  60  93 CALM      30.13F
STEVENS POINT  FAIR      58  58 100 CALM      30.15F
WAUPACA        FAIR      61  60  95 CALM      30.15F
WAUTOMA        FAIR      59  58  96 CALM      30.15F
WISC RAPIDS    FAIR      63  60  90 CALM      30.14F
CAMP DOUGLAS   FAIR      60  60 100 SE5       30.13S
$$

WIZ011>013-019>022-031-037>040-048>050-240800-
NORTHEAST WISCONSIN

CITY           SKY/WX    TMP DP  RH WIND       PRES   REMARKS
ANTIGO         FAIR      56  55  99 SW5       30.17S FOG
SHAWANO        FAIR      64  58  81 CALM      30.14F
OCONTO         FAIR      57  54  89 CALM      30.13F
STURGEON BAY   FAIR      63  47  55 S6        30.15F
GREEN BAY      FAIR      60  52  74 CALM      30.15F
MANITOWOC      FAIR      58  49  72 E3        30.16F
APPLETON       FAIR      61  52  72 S5        30.14F
CLINTONVILLE   FAIR      60  56  88 CALM      30.14F
OSHKOSH        FAIR      63  56  78 S8        30.15F
$$

WIZ032>034-041-042-053>061-240800-
SOUTHWEST WISCONSIN

CITY           SKY/WX    TMP DP  RH WIND       PRES   REMARKS
LA CROSSE      FAIR      66  62  87 SE6       30.10F
SPARTA         FAIR      56  55  99 CALM      30.13S
VIROQUA        FAIR      67  61  81 SE7       30.15S
BOSCOBEL       FOG       60  59  96 CALM      30.14S VSB 3/4
PRAIRIE DU CHI FAIR      64  61  91 CALM      30.12S
PLATTEVILLE    FAIR      66  60  79 SE7       30.15S
$$

WIZ056-057-062-063-064-067-068-240800-
SOUTH CENTRAL WISCONSIN

CITY           SKY/WX    TMP DP  RH WIND       PRES   REMARKS
REEDSBURG      FAIR      60  60 100 CALM      30.14S
BARABOO/DELLS  FAIR      62  59  89 S6        30.14F
LONE ROCK      FAIR      61  61 100 CALM      30.14S
MINERAL POINT  FAIR      66  61  82 SE5       30.15F
MADISON        FAIR      63  57  81 CALM      30.14F
MIDDLETON      FAIR      59  59 100 CALM      30.16F
WATERTOWN      FAIR      58  56  96 CALM      30.16S
MONROE         FAIR      63  54  72 SE8       30.15F
JANESVILLE     FAIR      61  52  72 CALM      30.16F
$$

WIZ051-052-058>065-066-070>072-240800-
SOUTHEAST WISCONSIN

CITY           SKY/WX    TMP DP  RH WIND       PRES   REMARKS
MILWAUKEE      FAIR      59  49  69 CALM      30.17F
WAUKESHA       FAIR      57  46  67 CALM      30.18F
MILWAUKEE/TIMM FAIR      55  46  71 CALM      30.18S
RACINE         FAIR      55  52  89 S3        30.18F
BURLINGTON     FAIR      54  52  95 CALM      30.17F
KENOSHA        FAIR      56  52  86 S3        30.17F
FOND DU LAC    FAIR      61  54  77 S3        30.16S
SHEBOYGAN      FAIR      56  50  80 SW3       30.16F
WEST BEND      FAIR      54  52  94 CALM      30.17F
JUNEAU         FAIR      61  55  79 CALM      30.17F
$$

LSZ147-162-240800-
LAKE SUPERIOR

STATION/POSITION TIME  TEMP    WIND        PRES    WAVE
                       AIR SEA DIR/SP/G            HT/PER
                 (UTC) (F)     (DEG/KT/KT) (MB)    (FT/S)
W MID LAKE BUOY  0650   39 36   30/  6/  6 1019.3F   0
DEVILS ISLAND    0700   45      90/  7/  8 1019.2F
SAXON HARBOR     0640   58     130/  2/  4 1017.9F
$$

LMZ867-665-643>646-240800-
LAKE MICHIGAN

STATION/POSITION TIME  TEMP    WIND        PRES    WAVE
                       AIR SEA DIR/SP/G            HT/PER
                 (UTC) (F)     (DEG/KT/KT) (MB)    (FT/S)
N MID LAKE BUOY  0650   41 37  180/  6/  8 1020.9F   1
NORTHPORT PIER   0640   49      CALM  /  2 1020.7S
KEWAUNEE LAKESHO 0630   65      10/  2/  3 1020.5F
SHEBOYGAN LAKESH 0700   61     210/  4/  4 1021.0F
PORT WASHINGTON  0630   54      CALM  /  1 1022.4F
ATWATER BUOY     0607   53 49  140/  4/  6 1021.6    1
MILWAUKEE LAKESH 0650   57     170/  4/  5   N/A
S MID LAKE BUOY  0650   49 39  130/  6/  8 1022.3F   0
KENOSHA   LAKESH 0700   57                 1021.7
$$

TC  - TEMPERATURE IN CELSIUS
VSB - VISIBILITY IN STATUTE MILES
WCI - WIND CHILL INDEX
HX  - HEAT INDEX




ASUS43 KMKX 240721
RWRWI

WISCONSIN REGIONAL WEATHER ROUNDUP
NATIONAL WEATHER SERVICE MILWAUKEE/SULLIVAN WI
200 AM CDT THU MAY 24 2018

NOTE: "FAIR" INDICATES FEW OR NO CLOUDS BELOW 12,000 FEET WITH NO
SIGNIFICANT WEATHER AND/OR OBSTRUCTIONS TO VISIBILITY.

WIZ001-002-006>008-014>016-023>028-240800-
NORTHWEST WISCONSIN

CITY           SKY/WX    TMP DP  RH WIND       PRES   REMARKS
SUPERIOR ARPT  FAIR      49  44  81 NE3       30.09R
ASHLAND        MOCLDY    56  54  93 CALM      30.08F
HAYWARD        FAIR      65  61  87 CALM      30.09F
SIREN          FAIR      69  60  74 SE6       30.07F
CUMBERLAND     FAIR      66  59  77 E6        30.10S
RICE LAKE      FAIR      66  61  85 SE3       30.11F
CHETEK         FAIR      64  62  93 E5        30.10S
LADYSMITH      FAIR      64  59  85 SE3       30.13S
EAU CLAIRE     FAIR      66  61  84 CALM      30.08F
MENOMONIE      FAIR      66  62  87 E3        30.08F
NEW RICHMOND   FAIR      69  60  74 S8        30.07S
OSCEOLA        CLOUDY    71  62  74 SE8       30.09S
$$

WIZ003>005-009-010-017-018-240800-
NORTH CENTRAL WISCONSIN

CITY           SKY/WX    TMP DP  RH WIND       PRES   REMARKS
MANITOWISH WTR   N/A     55  55 100 CALM      30.13F FOG
ARBOR VITAE    FAIR      59  57  91 SE3       30.14F
WOODRUFF       FAIR      59  57  91 SE3       30.14F
RHINELANDER    FAIR      60  58  92 CALM      30.16F FOG
EAGLE RIVER    FAIR      56  55  99 CALM      30.15S
LAND O LAKES   FAIR      54  53  96 CALM      30.17F
PHILLIPS       FAIR      61  61  99 S5        30.12F
TOMAHAWK       FAIR      56  55  96 CALM      30.16S FOG
MEDFORD        FAIR      60  58  93 S3        30.13F
MERRILL        FAIR      57  57 100 CALM      30.15S
$$

WIZ029-030-035-036-043>047-240800-
CENTRAL WISCONSIN

CITY           SKY/WX    TMP DP  RH WIND       PRES   REMARKS
WAUSAU         FAIR      62  60  93 E3        30.13F
MOSINEE        FAIR      61  59  94 S3        30.16S
MARSHFIELD     FAIR      62  60  93 CALM      30.13F
STEVENS POINT  FAIR      58  58 100 CALM      30.15F
WAUPACA        FAIR      61  60  95 CALM      30.15F
WAUTOMA        FAIR      59  58  96 CALM      30.15F
WISC RAPIDS    FAIR      63  60  90 CALM      30.14F
CAMP DOUGLAS   FAIR      60  60 100 SE5       30.13S
$$

WIZ011>013-019>022-031-037>040-048>050-240800-
NORTHEAST WISCONSIN

CITY           SKY/WX    TMP DP  RH WIND       PRES   REMARKS
ANTIGO         FAIR      56  55  99 SW5       30.17S FOG
SHAWANO        FAIR      64  58  81 CALM      30.14F
OCONTO         FAIR      57  54  89 CALM      30.13F
STURGEON BAY   FAIR      63  47  55 S6        30.15F
GREEN BAY      FAIR      60  52  74 CALM      30.15F
MANITOWOC      FAIR      58  49  72 E3        30.16F
APPLETON       FAIR      61  52  72 S5        30.14F
CLINTONVILLE   FAIR      60  56  88 CALM      30.14F
OSHKOSH        FAIR      63  56  78 S8        30.15F
$$

WIZ032>034-041-042-053>061-240800-
SOUTHWEST WISCONSIN

CITY           SKY/WX    TMP DP  RH WIND       PRES   REMARKS
LA CROSSE      FAIR      66  62  87 SE6       30.10F
SPARTA         FAIR      56  55  99 CALM      30.13S
VIROQUA        FAIR      67  61  81 SE7       30.15S
BOSCOBEL       FOG       60  59  96 CALM      30.14S VSB 3/4
PRAIRIE DU CHI FAIR      64  61  91 CALM      30.12S
PLATTEVILLE    FAIR      66  60  79 SE7       30.15S
$$

WIZ056-057-062-063-064-067-068-240800-
SOUTH CENTRAL WISCONSIN

CITY           SKY/WX    TMP DP  RH WIND       PRES   REMARKS
REEDSBURG      FAIR      60  60 100 CALM      30.14S
BARABOO/DELLS  FAIR      62  59  89 S6        30.14F
LONE ROCK      FAIR      61  61 100 CALM      30.14S
MINERAL POINT  FAIR      66  61  82 SE5       30.15F
MADISON        FAIR      63  57  81 CALM      30.14F
MIDDLETON      FAIR      59  59 100 CALM      30.16F
WATERTOWN      FAIR      58  56  96 CALM      30.16S
MONROE         FAIR      63  54  72 SE8       30.15F
JANESVILLE     FAIR      61  52  72 CALM      30.16F
$$

WIZ051-052-058>065-066-070>072-240800-
SOUTHEAST WISCONSIN

CITY           SKY/WX    TMP DP  RH WIND       PRES   REMARKS
MILWAUKEE      FAIR      59  49  69 CALM      30.17F
WAUKESHA       FAIR      57  46  67 CALM      30.18F
MILWAUKEE/TIMM FAIR      55  46  71 CALM      30.18S
RACINE         FAIR      55  52  89 S3        30.18F
BURLINGTON     FAIR      54  52  95 CALM      30.17F
KENOSHA        FAIR      56  52  86 S3        30.17F
FOND DU LAC    FAIR      61  54  77 S3        30.16S
SHEBOYGAN      FAIR      56  50  80 SW3       30.16F
WEST BEND      FAIR      54  52  94 CALM      30.17F
JUNEAU         FAIR      61  55  79 CALM      30.17F
$$

LSZ147-162-240800-
LAKE SUPERIOR

STATION/POSITION TIME  TEMP    WIND        PRES    WAVE
                       AIR SEA DIR/SP/G            HT/PER
                 (UTC) (F)     (DEG/KT/KT) (MB)    (FT/S)
W MID LAKE BUOY  0650   39 36   30/  6/  6 1019.3F   0
DEVILS ISLAND    0700   45      90/  7/  8 1019.2F
SAXON HARBOR     0640   58     130/  2/  4 1017.9F
$$

LMZ867-665-643>646-240800-
LAKE MICHIGAN

STATION/POSITION TIME  TEMP    WIND        PRES    WAVE
                       AIR SEA DIR/SP/G            HT/PER
                 (UTC) (F)     (DEG/KT/KT) (MB)    (FT/S)
N MID LAKE BUOY  0700   41 37  170/  6/  8 1020.8
NORTHPORT PIER   0640   49      CALM  /  2 1020.7S
KEWAUNEE LAKESHO 0654   55     120/  3/  4 1020.3F
SHEBOYGAN LAKESH 0700   61     210/  4/  4 1021.0F
PORT WASHINGTON  0630   54      CALM  /  1 1022.4F
ATWATER BUOY     0637   52 49  180/  4/  4 1021.6F   0
MILWAUKEE LAKESH 0700   55     170/  3/  4   N/A
S MID LAKE BUOY  0650   49 39  130/  6/  8 1022.3F   0
KENOSHA   LAKESH 0700   57                 1021.7
$$

TC  - TEMPERATURE IN CELSIUS
VSB - VISIBILITY IN STATUTE MILES
WCI - WIND CHILL INDEX
HX  - HEAT INDEX